[[{"header":{"parameterUnit":"m.s-1","parameterCategory":1,"la1":30.2991,"la2":30.254,"lo1":-89.0895,"lo2":-89.0444,"dy":0.0017,"dx":0.0017,"nx":28,"ny":28,"refTime":"2023-10-15T03:00:00:Z","depth":0,"parameterNumber":2,"parameterNumberName":"U-component_of_WINDS"},"data":[0,0,0,0,0,0,0,0,0,0,0,0,0,0,0,0,0,0,0,0,0,0,0,0,0,0,0,0,0,0,0,0,0,0,0,0,0,0,0,0,0,0,0,0,0,0,0,0,0,0,0,0,0,0,0,0,0,0,1.7318,1.7318,0,1.7268,1.7268,1.7267,1.7234,1.7234,1.7233,1.7233,1.7178,1.7177,1.7175,0,0,0,0,0,0,0,0,0,0,0,0,0,1.7383,1.7382,1.7319,1.7318,1.7317,1.7268,1.7268,1.7267,1.7234,1.7234,1.7233,1.7233,1.7178,1.7177,1.7175,0,0,0,0,0,0,0,0,0,0,0,0,0,1.7346,1.7381,1.7319,1.7295,1.7292,1.7269,1.7268,1.7267,1.7234,1.7234,1.7233,1.7233,1.7179,1.7177,1.7175,1.7169,0,0,1.7169,1.7168,0,0,0,0,0,0,0,0,1.7348,1.7343,1.7299,1.7297,1.7294,1.7257,1.727,1.7234,1.7234,1.7256,1.7233,1.7233,1.7204,1.72,1.7191,1.7167,1.7164,1.7169,1.7168,1.7167,1.7166,0,0,0,0,0,0,0,1.735,1.7345,1.7298,1.7298,1.7295,1.7286,1.728,1.7263,1.7232,1.7254,1.7252,1.7246,1.7203,1.7193,1.719,1.7164,1.7169,1.7167,1.7166,1.7165,1.7132,1.7133,0,0,0,0,0,0,1.7357,1.7348,1.73,1.7297,1.7321,1.7285,1.7279,1.7269,1.7232,1.7227,1.7247,1.7245,1.7197,1.7192,1.7188,1.7179,1.7167,1.7165,1.7164,1.7132,1.7133,1.7133,0,0,0,0,0,0,1.7359,1.7353,1.7302,1.7322,1.7315,1.7284,1.7274,1.7268,1.7259,1.7227,1.7221,1.7243,1.7196,1.719,1.7175,1.7176,1.7164,1.7163,1.7132,1.7132,1.7133,1.7161,0,0,0,0,0,0,1.7361,1.7354,1.7352,1.7322,1.7314,1.7291,1.7274,1.7268,1.7256,1.7253,1.7222,1.7216,1.7196,1.7178,1.7173,1.7173,1.7161,1.7131,1.7132,1.7133,1.716,1.7162,1.7165,0,0,0,0,0,1.7363,1.7361,1.7352,1.7347,1.7311,1.7291,1.7286,1.7264,1.7256,1.7254,1.7234,1.7217,1.7177,1.7176,1.717,1.7171,1.7131,1.7132,1.7132,1.7159,1.7162,1.7164,0,0,0,0,0,0,1.7391,1.7357,1.7346,1.7335,1.7316,1.7286,1.7281,1.7268,1.7249,1.7247,1.7219,1.7212,1.7199,1.7183,1.7183,1.7164,1.7152,1.7152,1.7174,1.7177,1.7179,1.7183,1.7159,0,0,0,0,0,1.7396,1.7384,1.7354,1.7347,1.7338,1.7312,1.7302,1.7287,1.7266,1.7257,1.7235,1.7215,1.7197,1.7186,1.7169,1.7158,1.715,1.7155,1.7158,1.716,1.7159,1.7152,1.7154,1.7135,1.7135,1.7135,0,0,1.7405,1.7385,1.7379,1.7352,1.7336,1.7323,1.7305,1.7292,1.7282,1.7255,1.7239,1.7222,1.7197,1.7184,1.7177,1.717,1.7163,1.7161,1.7163,1.7161,1.7153,1.7155,1.7156,1.7135,1.7135,1.7135,0,0,1.7416,1.74,1.7392,1.7377,1.7353,1.7336,1.7334,1.7306,1.7295,1.7279,1.7258,1.7245,1.7216,1.7199,1.7187,1.7193,1.7177,1.7188,1.72,1.7194,1.7195,1.7196,1.7198,1.7199,1.7188,1.7188,1.7188,0,1.743,1.7411,1.739,1.7378,1.7367,1.7344,1.7335,1.7321,1.7292,1.7284,1.7278,1.7242,1.7223,1.7206,1.7208,1.7198,1.7195,1.7191,1.7197,1.7198,1.7199,1.72,1.7201,1.719,1.719,1.7189,1.7189,0,1.743,1.7417,1.7414,1.7388,1.7377,1.7367,1.7343,1.7333,1.7319,1.7303,1.7287,1.7264,1.7242,1.7237,1.7222,1.7217,1.7214,1.7203,1.719,1.7202,1.7203,1.7204,1.7192,1.7191,1.7191,1.719,0,0,1.7455,1.7419,1.7418,1.7407,1.738,1.7369,1.7358,1.7338,1.733,1.7311,1.7301,1.7278,1.7268,1.7254,1.7237,1.7232,1.7238,1.7221,1.722,1.7225,1.7231,1.7239,1.724,1.7228,1.7228,1.7228,1.7233,0,1.7461,1.7441,1.7422,1.7409,1.7397,1.7375,1.7366,1.7348,1.7332,1.7319,1.7301,1.7285,1.7273,1.7265,1.7259,1.7239,1.7239,1.7238,1.7217,1.7216,1.7223,1.724,1.7248,1.7253,1.7233,1.7233,1.7233,0,1.7465,1.7449,1.7435,1.741,1.7404,1.7396,1.7376,1.7364,1.7343,1.7332,1.7318,1.7301,1.7288,1.7279,1.7259,1.726,1.725,1.7239,1.7239,1.7235,1.7224,1.7235,1.7254,1.7255,1.7233,1.7233,1.7233,0,1.7484,1.7459,1.7447,1.7438,1.7409,1.7404,1.7391,1.737,1.7359,1.7342,1.7335,1.7315,1.7305,1.729,1.7268,1.7263,1.7251,1.724,1.7241,1.7241,1.7238,1.7238,1.7254,1.7233,1.7233,1.7233,1.7233,0,1.7492,1.7484,1.7456,1.7448,1.7439,1.7417,1.7408,1.7393,1.7375,1.7364,1.7344,1.7334,1.7307,1.7293,1.7276,1.7263,1.7258,1.7248,1.7243,1.7249,1.725,1.7241,1.724,1.7234,1.7234,1.7234,1.7234,0,1.751,1.7491,1.7477,1.7452,1.7445,1.7439,1.7416,1.7408,1.7393,1.7379,1.7374,1.7349,1.7332,1.7309,1.7285,1.7273,1.7262,1.7255,1.7269,1.7266,1.7268,1.7268,1.7278,1.7278,1.7259,1.7259,1.7259,0,1.7516,1.751,1.7484,1.7476,1.7465,1.7452,1.7441,1.742,1.741,1.7386,1.7381,1.7363,1.7347,1.7321,1.7299,1.7281,1.7273,1.7278,1.727,1.7276,1.7272,1.7272,1.7271,1.7279,1.728,1.728,1.728,0,1.7528,1.752,1.7506,1.749,1.7478,1.7464,1.7448,1.7442,1.7417,1.7407,1.739,1.7378,1.7354,1.7336,1.7315,1.7301,1.7286,1.7283,1.7282,1.7287,1.7295,1.729,1.7274,1.7282,1.7282,1.7282,1.7282,1.7282,1.754,1.7534,1.7515,1.75,1.7487,1.7473,1.7465,1.7449,1.7435,1.7415,1.7403,1.7387,1.7366,1.7337,1.7323,1.731,1.7304,1.7302,1.7302,1.7302,1.7303,1.7299,1.7306,1.7306,1.7306,1.7306,1.7305,0,1.7551,1.7538,1.7525,1.7505,1.7494,1.7483,1.7466,1.7456,1.7443,1.7426,1.7412,1.7393,1.7376,1.7354,1.7335,1.7328,1.7321,1.7324,1.7323,1.732,1.731,1.7312,1.733,1.733,1.733,1.733,1.733,1.733,1.7555,1.7543,1.7533,1.7514,1.7501,1.7486,1.7477,1.7464,1.7451,1.7431,1.7418,1.7404,1.7385,1.7365,1.7349,1.7343,1.7336,1.7341,1.7333,1.7323,1.7321,1.7319,1.7321,1.734,1.734,1.7344,1.7344,1.7344]},{"header":{"parameterUnit":"m.s-1","parameterCategory":1,"la1":30.2991,"la2":30.254,"lo1":-89.0895,"lo2":-89.0444,"dy":0.0017,"dx":0.0017,"nx":28,"ny":28,"refTime":"2023-10-15T03:00:00:Z","depth":0,"parameterNumber":3,"parameterNumberName":"V-component_of_WINDS"},"data":[0,0,0,0,0,0,0,0,0,0,0,0,0,0,0,0,0,0,0,0,0,0,0,0,0,0,0,0,0,0,0,0,0,0,0,0,0,0,0,0,0,0,0,0,0,0,0,0,0,0,0,0,0,0,0,0,0,0,-6.8985,-6.8987,0,-6.9149,-6.9151,-6.9153,-6.9047,-6.9043,-6.9038,-6.9033,-6.9194,-6.9203,-6.9212,0,0,0,0,0,0,0,0,0,0,0,0,0,-6.8574,-6.8582,-6.8985,-6.8987,-6.8989,-6.9149,-6.9151,-6.9154,-6.9048,-6.9042,-6.9036,-6.9031,-6.9192,-6.9202,-6.9213,0,0,0,0,0,0,0,0,0,0,0,0,0,-6.8747,-6.8585,-6.8985,-6.8956,-6.8955,-6.9149,-6.9151,-6.9154,-6.905,-6.9042,-6.9035,-6.9028,-6.9188,-6.9201,-6.9214,-6.9443,0,0,-6.9255,-6.926,0,0,0,0,0,0,0,0,-6.8737,-6.8762,-6.8958,-6.8958,-6.8958,-6.9071,-6.9066,-6.9251,-6.9051,-6.9014,-6.9033,-6.9024,-6.9159,-6.9174,-6.9221,-6.945,-6.9457,-6.9256,-6.9264,-6.927,-6.9273,0,0,0,0,0,0,0,-6.8725,-6.8754,-6.905,-6.8961,-6.8961,-6.8933,-6.895,-6.91,-6.9125,-6.9016,-6.9009,-6.903,-6.9157,-6.9208,-6.9224,-6.946,-6.9255,-6.9267,-6.9275,-6.9281,-6.9886,-6.9894,0,0,0,0,0,0,-6.8717,-6.8745,-6.9045,-6.9055,-6.8827,-6.8946,-6.8965,-6.9042,-6.9123,-6.9129,-6.9036,-6.9025,-6.9189,-6.9208,-6.9229,-6.9504,-6.9269,-6.9282,-6.929,-6.9878,-6.9888,-6.9897,0,0,0,0,0,0,-6.8708,-6.8744,-6.9038,-6.8898,-6.8933,-6.8961,-6.9048,-6.9049,-6.91,-6.9138,-6.9142,-6.9085,-6.9184,-6.921,-6.9391,-6.9508,-6.9288,-6.93,-6.9869,-6.9881,-6.9892,-7.0054,0,0,0,0,0,0,-6.8697,-6.8742,-6.8831,-6.8901,-6.8941,-6.92,-6.9056,-6.9057,-6.9124,-6.911,-6.9184,-6.919,-6.918,-6.9372,-6.9404,-6.9522,-6.931,-6.9858,-6.9874,-6.9889,-7.0039,-7.007,-7.0098,0,0,0,0,0,-6.8683,-6.8868,-6.8836,-6.8872,-6.9053,-6.9207,-6.923,-6.9217,-6.9134,-6.9222,-6.9247,-6.9187,-6.9489,-6.9391,-6.9427,-6.955,-6.9851,-6.987,-6.9887,-7.0025,-7.0064,-7.0097,0,0,0,0,0,0,-6.8807,-6.8876,-6.8842,-6.9055,-6.9127,-6.9189,-6.93,-6.9258,-6.9353,-6.9336,-6.9314,-6.9332,-6.9522,-6.9553,-6.9443,-6.9776,-6.9657,-6.9683,-6.9749,-6.9786,-6.9815,-6.9804,-6.9321,0,0,0,0,0,-6.886,-6.8982,-6.9034,-6.9218,-6.9255,-6.9272,-6.9338,-6.9323,-6.9395,-6.9424,-6.9461,-6.9532,-6.9642,-6.9716,-6.9819,-7.0042,-7.0057,-7.0144,-7.0174,-7.0198,-7.0221,-7.0342,-7.0382,-6.9957,-6.9957,-6.9956,0,0,-6.897,-6.9023,-6.91,-6.9244,-6.9297,-6.9422,-6.9298,-6.9434,-6.9527,-6.9443,-6.9618,-6.9649,-6.9725,-6.9929,-7.002,-6.9961,-7.0342,-7.0221,-7.024,-7.025,-7.0365,-7.0406,-7.0441,-6.9969,-6.9967,-6.9965,0,0,-6.9234,-6.9286,-6.9446,-6.9502,-6.9586,-6.9596,-6.9634,-6.9704,-6.9722,-6.9897,-6.9838,-6.9945,-7.0136,-7.0194,-7.0248,-7.0536,-7.0484,-7.057,-7.0724,-7.0843,-7.0876,-7.0906,-7.101,-7.1048,-7.0592,-7.0593,-7.0593,0,-6.9359,-6.9547,-6.9532,-6.9675,-6.974,-6.9673,-6.9834,-6.9889,-7.0001,-7.0047,-6.9979,-7.0219,-7.0265,-7.0482,-7.0553,-7.0599,-7.0641,-7.0562,-7.0873,-7.0903,-7.093,-7.1029,-7.1068,-7.0603,-7.0602,-7.0601,-7.06,0,-6.9698,-6.9829,-6.9947,-7.0061,-7.0139,-7.029,-7.0297,-7.0377,-7.0355,-7.0372,-7.0551,-7.0605,-7.0719,-7.0769,-7.0747,-7.0984,-7.0945,-7.0876,-7.0755,-7.0981,-7.1074,-7.1111,-7.0617,-7.0614,-7.0611,-7.0608,0,0,-7.0046,-7.015,-7.0194,-7.0246,-7.0333,-7.0433,-7.058,-7.0695,-7.0765,-7.0844,-7.0968,-7.1131,-7.1069,-7.1131,-7.1115,-7.1219,-7.1445,-7.1137,-7.1138,-7.1194,-7.171,-7.1763,-7.1807,-7.1411,-7.1418,-7.1424,-7.1704,0,-7.0316,-7.0577,-7.0568,-7.0811,-7.0932,-7.087,-7.0998,-7.1065,-7.1085,-7.1189,-7.1208,-7.1327,-7.1234,-7.1272,-7.1372,-7.1397,-7.1549,-7.1376,-7.1525,-7.1531,-7.151,-7.1855,-7.1911,-7.2174,-7.174,-7.1746,-7.1751,0,-7.0667,-7.0762,-7.1018,-7.1089,-7.1139,-7.1256,-7.1361,-7.1461,-7.1535,-7.1542,-7.1613,-7.158,-7.1728,-7.1603,-7.1806,-7.1689,-7.1749,-7.1771,-7.1781,-7.1795,-7.1656,-7.1881,-7.2257,-7.2297,-7.1807,-7.1803,-7.1799,0,-7.0898,-7.1089,-7.1267,-7.1312,-7.1399,-7.1483,-7.1522,-7.1589,-7.1659,-7.175,-7.1795,-7.1901,-7.1959,-7.2041,-7.2038,-7.1947,-7.2245,-7.2119,-7.2255,-7.2255,-7.2321,-7.2318,-7.2714,-7.2358,-7.2357,-7.2356,-7.2355,0,-7.1202,-7.1361,-7.1372,-7.1482,-7.1658,-7.1646,-7.182,-7.185,-7.1911,-7.2024,-7.1975,-7.2083,-7.2071,-7.2179,-7.2176,-7.2346,-7.2372,-7.2381,-7.2379,-7.2387,-7.2387,-7.2427,-7.241,-7.2367,-7.2364,-7.2362,-7.236,0,-7.149,-7.1504,-7.1694,-7.1762,-7.1783,-7.191,-7.1967,-7.207,-7.2086,-7.223,-7.2263,-7.2287,-7.2411,-7.2416,-7.2557,-7.2556,-7.2764,-7.274,-7.274,-7.2736,-7.2873,-7.2861,-7.3311,-7.337,-7.2973,-7.2977,-7.298,0,-7.1685,-7.1806,-7.1888,-7.1962,-7.2008,-7.2127,-7.2199,-7.2191,-7.2267,-7.2362,-7.2454,-7.2574,-7.267,-7.2871,-7.29,-7.3008,-7.2988,-7.3138,-7.3004,-7.3009,-7.2993,-7.2987,-7.2999,-7.3165,-7.3169,-7.3173,-7.3176,0,-7.2029,-7.203,-7.2137,-7.2249,-7.2337,-7.2422,-7.2502,-7.2565,-7.2565,-7.2654,-7.2782,-7.2857,-7.3003,-7.3123,-7.3229,-7.3267,-7.3223,-7.3218,-7.3255,-7.3266,-7.3262,-7.3268,-7.2814,-7.3208,-7.3205,-7.3202,-7.3201,-7.3199,-7.2277,-7.2383,-7.2458,-7.258,-7.2639,-7.2715,-7.2817,-7.2847,-7.2954,-7.3075,-7.3062,-7.3205,-7.3275,-7.3414,-7.3461,-7.3571,-7.3519,-7.3573,-7.3587,-7.3601,-7.3617,-7.3243,-7.359,-7.3589,-7.3588,-7.3587,-7.3586,0,-7.2621,-7.2666,-7.2778,-7.2893,-7.2989,-7.294,-7.3026,-7.3109,-7.3236,-7.3307,-7.3404,-7.3551,-7.3668,-7.3706,-7.3819,-7.39,-7.3883,-7.393,-7.3925,-7.3935,-7.3655,-7.3613,-7.3943,-7.3943,-7.3943,-7.3942,-7.3942,-7.3942,-7.2811,-7.2989,-7.2999,-7.3205,-7.3249,-7.3391,-7.3444,-7.3514,-7.3571,-7.3739,-7.3837,-7.3862,-7.392,-7.4037,-7.4142,-7.415,-7.4194,-7.4251,-7.4251,-7.399,-7.3954,-7.392,-7.388,-7.426,-7.4261,-7.4521,-7.4524,-7.4526]}]]